�������r�C�����j�^�v���󋵏��
Date,Time,5�C6���@���p�r�C��,����,����(m/s)
2021/06/11,00:00,3.9,��,6.0
2021/06/11,00:10,3.9,��,6.2
2021/06/11,00:20,3.9,��,4.9
2021/06/11,00:30,4.0,��,5.2
2021/06/11,00:40,3.9,��,4.8
2021/06/11,00:50,4.1,��쐼,5.0
2021/06/11,01:00,3.9,��쐼,5.3
2021/06/11,01:10,3.8,��쐼,5.5
2021/06/11,01:20,4.0,��쐼,4.7
2021/06/11,01:30,3.9,��쐼,3.5
2021/06/11,01:40,4.0,���쐼,1.5
2021/06/11,01:50,3.8,�k�k��,0.9
2021/06/11,02:00,3.8,�k�k��,1.7
2021/06/11,02:10,3.8,�k�k��,2.2
2021/06/11,02:20,4.0,�k�k��,2.2
2021/06/11,02:30,4.0,�k,2.2
2021/06/11,02:40,3.9,�k,2.2
2021/06/11,02:50,3.8,�k�k��,2.6
2021/06/11,03:00,3.8,�k�k��,2.6
2021/06/11,03:10,4.0,�k��,2.2
2021/06/11,03:20,3.9,�k�k��,1.5
2021/06/11,03:30,3.9,�k��,0.6
2021/06/11,03:40,3.8,���k��,1.2
2021/06/11,03:50,3.8,��,0.6
2021/06/11,04:00,3.9,��,0.9
2021/06/11,04:10,3.9,���k��,0.9
2021/06/11,04:20,3.6,���k��,0.9
2021/06/11,04:30,3.8,-,CALM
2021/06/11,04:40,3.9,��,0.8
2021/06/11,04:50,4.0,�쐼,1.1
2021/06/11,05:00,3.9,�쐼,1.2
2021/06/11,05:10,4.0,��쐼,0.6
2021/06/11,05:20,3.9,��,0.9
2021/06/11,05:30,3.8,��쓌,1.1
2021/06/11,05:40,3.8,��,0.9
2021/06/11,05:50,3.9,��,0.8
2021/06/11,06:00,3.9,-,CALM
2021/06/11,06:10,3.9,-,CALM
2021/06/11,06:20,3.8,-,CALM
2021/06/11,06:30,3.8,-,CALM
2021/06/11,06:40,3.9,�k��,0.6
2021/06/11,06:50,3.7,�k�k��,1.2
2021/06/11,07:00,3.8,�k�k��,1.2
2021/06/11,07:10,3.9,�k,1.4
2021/06/11,07:20,3.9,�k��,0.6
2021/06/11,07:30,4.0,�k,0.9
2021/06/11,07:40,3.8,�k,1.1
2021/06/11,07:50,4.0,�k��,0.9
2021/06/11,08:00,3.8,�k��,1.1
2021/06/11,08:10,4.0,��,1.5
2021/06/11,08:20,3.8,�쓌,1.5
2021/06/11,08:30,3.9,�쓌,1.2
2021/06/11,08:40,3.9,��쓌,1.9
2021/06/11,08:50,3.9,�쓌,1.7
2021/06/11,09:00,3.8,��쓌,2.0
2021/06/11,09:10,3.8,�쓌,2.6
2021/06/11,09:20,4.0,��쓌,3.4
2021/06/11,09:30,3.8,��쓌,3.8
2021/06/11,09:40,3.8,��쓌,3.5
2021/06/11,09:50,3.8,��,3.6
2021/06/11,10:00,3.8,��쓌,3.7
2021/06/11,10:10,3.8,��쓌,5.0
2021/06/11,10:20,4.0,��쓌,8.3
2021/06/11,10:30,3.9,��,8.4
2021/06/11,10:40,3.9,��,7.7
2021/06/11,10:50,3.9,��쓌,9.7
2021/06/11,11:00,3.8,��쓌,11.8
2021/06/11,11:10,3.8,��,11.3
2021/06/11,11:20,3.9,��쓌,12.7
2021/06/11,11:30,4.0,��쓌,12.5
2021/06/11,11:40,3.9,��쓌,14.4
2021/06/11,11:50,3.9,��쓌,15.0
2021/06/11,12:00,3.8,��쓌,14.6
2021/06/11,12:10,3.9,��쓌,13.1
2021/06/11,12:20,3.8,��쓌,13.9
2021/06/11,12:30,3.8,��쓌,14.9
2021/06/11,12:40,3.8,��쓌,14.1
2021/06/11,12:50,3.8,��쓌,15.2
2021/06/11,13:00,4.1,��쓌,15.7
2021/06/11,13:10,3.8,��쓌,13.9
2021/06/11,13:20,4.0,��쓌,15.5
2021/06/11,13:30,3.7,��쓌,18.5
2021/06/11,13:40,3.9,��쓌,14.7
2021/06/11,13:50,3.9,��쓌,14.7
2021/06/11,14:00,3.8,��쓌,15.5
2021/06/11,14:10,3.9,��쓌,16.3
2021/06/11,14:20,3.9,��쓌,15.8
2021/06/11,14:30,3.9,��쓌,13.5
2021/06/11,14:40,3.8,��쓌,13.8
2021/06/11,14:50,3.8,��,11.7
2021/06/11,15:00,3.9,��쓌,14.1
2021/06/11,15:10,3.8,��쓌,12.2
2021/06/11,15:20,3.8,��쓌,12.1
2021/06/11,15:30,3.8,��,13.9
2021/06/11,15:40,3.6,��쓌,14.7
2021/06/11,15:50,3.9,��쓌,13.9
2021/06/11,16:00,3.9,��,14.1
2021/06/11,16:10,3.8,��,13.3
2021/06/11,16:20,3.8,��쓌,12.0
2021/06/11,16:30,3.9,��쓌,11.8
2021/06/11,16:40,3.9,��,12.8
2021/06/11,16:50,3.9,��,11.1
2021/06/11,17:00,3.8,��,10.7
2021/06/11,17:10,3.7,��,10.6
2021/06/11,17:20,4.0,��,11.6
2021/06/11,17:30,3.7,��,11.3
2021/06/11,17:40,3.8,��,10.5
2021/06/11,17:50,3.8,��,9.1
2021/06/11,18:00,3.9,��,10.2
2021/06/11,18:10,3.7,��,9.5
2021/06/11,18:20,4.0,��,8.5
2021/06/11,18:30,3.7,��,8.3
2021/06/11,18:40,3.9,��,10.2
2021/06/11,18:50,3.9,��,10.0
2021/06/11,19:00,3.9,��,7.6
2021/06/11,19:10,3.9,��,8.9
2021/06/11,19:20,3.7,��,9.5
2021/06/11,19:30,3.7,��,9.9
2021/06/11,19:40,3.9,��,8.9
2021/06/11,19:50,4.0,��,8.5
2021/06/11,20:00,4.0,��,8.4
2021/06/11,20:10,3.9,��,7.3
2021/06/11,20:20,4.0,��,7.5
2021/06/11,20:30,3.7,��,7.3
2021/06/11,20:40,4.1,��,8.3
2021/06/11,20:50,3.9,��,8.3
2021/06/11,21:00,3.8,��쐼,8.1
2021/06/11,21:10,3.8,��,8.9
2021/06/11,21:20,3.9,��,8.1
2021/06/11,21:30,3.9,��,9.3
2021/06/11,21:40,3.9,��,9.0
2021/06/11,21:50,3.9,��,9.2
2021/06/11,22:00,3.8,��,8.9
2021/06/11,22:10,3.9,��,10.2
2021/06/11,22:20,4.0,��,10.8
2021/06/11,22:30,3.8,��,10.8
2021/06/11,22:40,3.8,��,9.9
2021/06/11,22:50,3.9,��,10.0
2021/06/11,23:00,4.0,��,8.8
2021/06/11,23:10,4.0,��,8.6
2021/06/11,23:20,4.0,��,8.8
2021/06/11,23:30,4.0,��,10.2
2021/06/11,23:40,3.8,��,10.2
2021/06/11,23:50,3.9,��,12.1
